Oklahoma City, OK

2:38 AM CST on February 25, 2017 (GMT -0600)
Will Rogers World

Weather History for KOKC - April, 2014

Change the Weather History Date:

Saturday, April 26, 2014

  Actual Average Record
Temperature  
Mean Temperature 76 °F 64 °F  
Max Temperature 90 °F 75 °F 92 °F (1896)
Min Temperature 61 °F 53 °F 35 °F (1907)
Degree Days  
Heating Degree Days 0 3  
Month to date heating degree days 138 161  
Since 1 July heating degree days 3740 3320  
Cooling Degree Days 11 3  
Month to date cooling degree days 46 41  
Year to date cooling degree days 57 54  
Growing Degree Days 26 (Base 50)    
Moisture  
Dew Point 53 °F    
Average Humidity 50    
Maximum Humidity 68    
Minimum Humidity 32    
Precipitation  
Precipitation 0.00 in 0.13 in 2.77 in (1998)
Month to date precipitation 0.85 2.55  
Year to date precipitation 2.54 8.58  
Snow  
Snow 0.00 in - - ()
Month to date snowfall T  
Snow Depth 0.00 in    
Sea Level Pressure  
Sea Level Pressure 29.63 in    
Wind  
Wind Speed 21 mph (SSE)    
Max Wind Speed 35 mph    
Max Gust Speed 45 mph    
Visibility 10 miles    
Events      
T = Trace of Precipitation, MM = Missing Value Source: NWS Daily Summary

Daily Weather History Graph

Daily Weather History Graph

Search for Another Location

Airport or City:

Trip Planner

Search our weather history database for the weather conditions in past years. The results will help you decide how hot, cold, wet, or windy it might be!

Date:

Astronomy

Apr. 26, 2014 Rise Set
Actual Time 6:44 AM CDT 8:12 PM CDT
Civil Twilight 6:17 AM CDT 8:39 PM CDT
Nautical Twilight 5:45 AM CDT 9:11 PM CDT
Astronomical Twilight 5:11 AM CDT 9:45 PM CDT
Moon 5:02 AM CDT (4/26) 5:47 PM CDT (4/26)
Length of Visible Light 14h 21m
Length of Day
13h 28m
Waning Crescent, 8% of the Moon is Illuminated
Apr 26
Waning Crescent
Apr 29
New
May 6
First Quarter
May 14
Full
May 21
Last Quarter

Hourly Weather History & Observations

Time (CDT) Temp. Heat Index Dew Point Humidity Pressure Visibility Wind Dir Wind Speed Gust Speed Precip Events Conditions
12:52 AM 64.9 °F - 39.9 °F 40% 29.76 in 10.0 mi SSE 16.1 mph - N/A   Scattered Clouds
1:52 AM 64.0 °F - 39.9 °F 41% 29.75 in 10.0 mi South 16.1 mph 26.5 mph N/A   Scattered Clouds
2:52 AM 64.0 °F - 39.0 °F 40% 29.73 in 10.0 mi South 15.0 mph - N/A   Mostly Cloudy
3:52 AM 62.1 °F - 39.0 °F 43% 29.72 in 10.0 mi South 13.8 mph - N/A   Mostly Cloudy
4:52 AM 62.1 °F - 39.9 °F 44% 29.71 in 10.0 mi SSE 13.8 mph - N/A   Mostly Cloudy
5:52 AM 62.1 °F - 39.9 °F 44% 29.72 in 10.0 mi South 18.4 mph - N/A   Mostly Cloudy
6:52 AM 62.1 °F - 42.1 °F 48% 29.71 in 10.0 mi South 13.8 mph - N/A   Mostly Cloudy
7:52 AM 63.0 °F - 46.0 °F 54% 29.72 in 10.0 mi South 17.3 mph 25.3 mph N/A   Mostly Cloudy
8:52 AM 68.0 °F - 52.0 °F 56% 29.71 in 10.0 mi South 19.6 mph - N/A   Mostly Cloudy
9:52 AM 73.9 °F - 57.0 °F 55% 29.70 in 10.0 mi South 20.7 mph 28.8 mph N/A   Mostly Cloudy
10:52 AM 78.1 °F - 57.9 °F 50% 29.68 in 10.0 mi South 23.0 mph 29.9 mph N/A   Mostly Cloudy
11:52 AM 82.0 °F 82.0 °F 57.9 °F 44% 29.66 in 10.0 mi South 21.9 mph 31.1 mph N/A   Mostly Cloudy
12:52 PM 84.9 °F 84.2 °F 57.9 °F 40% 29.62 in 10.0 mi South 21.9 mph 31.1 mph N/A   Mostly Cloudy
1:52 PM 89.1 °F 87.1 °F 55.0 °F 31% 29.59 in 10.0 mi South 27.6 mph 33.4 mph N/A   Mostly Cloudy
2:52 PM 88.0 °F 86.5 °F 55.9 °F 34% 29.57 in 10.0 mi South 23.0 mph 38.0 mph N/A   Mostly Cloudy
3:52 PM 89.1 °F 88.0 °F 57.9 °F 35% 29.53 in 10.0 mi SSE 25.3 mph 33.4 mph N/A   Mostly Cloudy
4:52 PM 87.1 °F 86.5 °F 59.0 °F 39% 29.55 in 10.0 mi SSE 24.2 mph 31.1 mph N/A   Mostly Cloudy
5:52 PM 84.0 °F 83.3 °F 57.0 °F 40% 29.53 in 10.0 mi South 25.3 mph 33.4 mph N/A   Mostly Cloudy
6:52 PM 82.0 °F 82.1 °F 59.0 °F 45% 29.52 in 10.0 mi SSE 25.3 mph 34.5 mph N/A   Overcast
7:52 PM 78.1 °F - 61.0 °F 56% 29.52 in 10.0 mi SSE 24.2 mph 34.5 mph N/A   Mostly Cloudy
8:52 PM 75.0 °F - 63.0 °F 66% 29.51 in 10.0 mi SSE 26.5 mph 39.1 mph N/A   Mostly Cloudy
9:52 PM 73.9 °F - 62.1 °F 66% 29.53 in 10.0 mi South 23.0 mph 36.8 mph N/A   Mostly Cloudy
10:52 PM 73.0 °F - 62.1 °F 68% 29.54 in 10.0 mi South 24.2 mph 35.7 mph N/A   Mostly Cloudy
11:37 PM 73.4 °F - 62.6 °F 69% 29.58 in 10.0 mi South 19.6 mph 29.9 mph N/A   Overcast
11:52 PM 73.0 °F - 63.0 °F 71% 29.52 in 10.0 mi SSE 21.9 mph 31.1 mph N/A   Overcast